Time,TemperatureF,DewpointF,PressureIn,WindDirection,WindDirectionDegrees,WindSpeedMPH,WindSpeedGustMPH,Humidity,HourlyPrecipIn,Conditions,Clouds,dailyrainin,SoftwareType,DateUTC
2013-05-28 00:01:00,42.0,40.0,29.80,SSW,203,1.0,8.0,92,0.00,,,0.02,,2013-05-28 08:01:00,
2013-05-28 00:11:00,42.0,40.0,29.80,SSW,203,1.0,8.0,92,0.00,,,0.02,,2013-05-28 08:11:00,
2013-05-28 00:21:00,42.0,40.0,29.80,SSW,207,2.0,5.0,92,0.00,,,0.02,,2013-05-28 08:21:00,
2013-05-28 00:32:00,42.0,40.0,29.79,SSW,194,2.0,7.0,93,0.00,,,0.02,,2013-05-28 08:32:00,
2013-05-28 00:41:00,42.0,40.0,29.79,SSW,194,2.0,7.0,93,0.00,,,0.02,,2013-05-28 08:41:00,
2013-05-28 00:51:00,42.0,40.0,29.79,SW,226,1.0,5.0,93,0.00,,,0.02,,2013-05-28 08:51:00,
2013-05-28 01:01:00,42.0,40.0,29.79,WSW,252,2.0,6.0,94,0.00,,,0.02,,2013-05-28 09:01:00,
2013-05-28 01:11:00,42.0,40.0,29.79,WSW,252,2.0,6.0,94,0.00,,,0.02,,2013-05-28 09:11:00,
2013-05-28 01:21:00,41.0,39.0,29.78,WSW,249,1.0,6.0,94,0.00,,,0.02,,2013-05-28 09:21:00,
2013-05-28 01:33:00,41.0,39.0,29.79,SSW,213,2.0,7.0,94,0.00,,,0.02,,2013-05-28 09:33:00,
2013-05-28 01:42:00,41.0,39.0,29.79,SSW,213,2.0,7.0,94,0.00,,,0.02,,2013-05-28 09:42:00,
2013-05-28 01:53:00,42.0,40.0,29.79,SW,236,1.0,7.0,94,0.00,,,0.02,,2013-05-28 09:53:00,
2013-05-28 02:02:00,42.0,40.0,29.78,SSW,205,1.0,3.0,94,0.00,,,0.02,,2013-05-28 10:02:00,
2013-05-28 02:12:00,42.0,40.0,29.78,SSW,205,1.0,3.0,94,0.00,,,0.02,,2013-05-28 10:12:00,
2013-05-28 02:22:00,41.0,39.0,29.79,SSW,203,1.0,3.0,94,0.00,,,0.02,,2013-05-28 10:22:00,
2013-05-28 02:32:00,41.0,39.0,29.78,WSW,246,1.0,3.0,94,0.00,,,0.02,,2013-05-28 10:32:00,
2013-05-28 02:42:00,41.0,39.0,29.78,WSW,246,1.0,3.0,94,0.00,,,0.02,,2013-05-28 10:42:00,
2013-05-28 02:52:00,41.0,39.0,29.78,SSW,207,1.0,6.0,94,0.00,,,0.02,,2013-05-28 10:52:00,
2013-05-28 03:02:00,41.0,40.0,29.78,SSW,192,1.0,3.0,95,0.00,,,0.02,,2013-05-28 11:02:00,
2013-05-28 03:11:00,41.0,40.0,29.78,SSW,192,1.0,3.0,95,0.00,,,0.02,,2013-05-28 11:11:00,
2013-05-28 03:22:00,41.0,40.0,29.78,WSW,246,2.0,5.0,95,0.00,,,0.02,,2013-05-28 11:22:00,
2013-05-28 03:32:00,41.0,40.0,29.78,SSW,195,1.0,3.0,95,0.00,,,0.01,,2013-05-28 11:32:00,
2013-05-28 03:41:00,41.0,40.0,29.78,SSW,195,1.0,3.0,95,0.00,,,0.01,,2013-05-28 11:41:00,
2013-05-28 03:52:00,41.0,40.0,29.77,SW,229,1.0,3.0,95,0.00,,,0.01,,2013-05-28 11:52:00,
2013-05-28 04:01:00,40.0,39.0,29.77,SW,233,0.0,5.0,95,0.00,,,0.01,,2013-05-28 12:01:00,
2013-05-28 04:11:00,40.0,39.0,29.77,SW,233,0.0,5.0,95,0.00,,,0.01,,2013-05-28 12:11:00,
2013-05-28 04:21:00,40.0,39.0,29.77,West,263,0.0,5.0,95,0.00,,,0.01,,2013-05-28 12:21:00,
2013-05-28 04:31:00,40.0,39.0,29.78,South,187,0.0,3.0,95,0.00,,,0.00,,2013-05-28 12:31:00,
2013-05-28 04:42:00,40.0,39.0,29.78,South,187,0.0,3.0,95,0.00,,,0.00,,2013-05-28 12:42:00,
2013-05-28 04:52:00,40.0,39.0,29.77,SW,235,1.0,3.0,95,0.00,,,0.00,,2013-05-28 12:52:00,
2013-05-28 05:01:00,39.0,38.0,29.77,WSW,246,0.0,3.0,95,0.00,,,0.00,,2013-05-28 13:01:00,
2013-05-28 05:11:00,39.0,38.0,29.77,WSW,246,0.0,3.0,95,0.00,,,0.00,,2013-05-28 13:11:00,
2013-05-28 05:21:00,39.0,38.0,29.77,West,263,0.0,3.0,95,0.00,,,0.00,,2013-05-28 13:21:00,
2013-05-28 05:32:00,39.0,38.0,29.77,SSW,208,1.0,3.0,96,0.00,,,0.00,,2013-05-28 13:32:00,
2013-05-28 05:42:00,39.0,38.0,29.77,SSW,208,1.0,3.0,96,0.00,,,0.00,,2013-05-28 13:42:00,
2013-05-28 05:52:00,39.0,38.0,29.77,SSW,202,1.0,3.0,96,0.00,,,0.00,,2013-05-28 13:52:00,
2013-05-28 06:01:00,40.0,39.0,29.76,WSW,250,1.0,3.0,96,0.00,,,0.00,,2013-05-28 14:01:00,
2013-05-28 06:11:00,40.0,39.0,29.76,WSW,250,1.0,3.0,96,0.00,,,0.00,,2013-05-28 14:11:00,
2013-05-28 06:21:00,40.0,39.0,29.76,WSW,238,0.0,3.0,96,0.00,,,0.00,,2013-05-28 14:21:00,
2013-05-28 06:32:00,40.0,39.0,29.76,SW,216,0.0,3.0,96,0.00,,,0.00,,2013-05-28 14:32:00,
2013-05-28 06:41:00,40.0,39.0,29.76,SW,216,0.0,3.0,96,0.00,,,0.00,,2013-05-28 14:41:00,
2013-05-28 06:51:00,41.0,40.0,29.76,SW,216,0.0,3.0,97,0.00,,,0.00,,2013-05-28 14:51:00,
2013-05-28 07:01:00,41.0,40.0,29.76,SW,216,0.0,3.0,97,0.00,,,0.00,,2013-05-28 15:01:00,
2013-05-28 07:11:00,41.0,40.0,29.76,SW,216,0.0,3.0,97,0.00,,,0.00,,2013-05-28 15:11:00,
2013-05-28 07:21:00,43.0,42.0,29.76,SW,233,1.0,3.0,96,0.00,,,0.00,,2013-05-28 15:21:00,
2013-05-28 07:32:00,44.0,42.0,29.76,South,182,0.0,2.0,93,0.00,,,0.00,,2013-05-28 15:32:00,
2013-05-28 07:43:00,44.0,42.0,29.76,South,182,0.0,2.0,93,0.00,,,0.00,,2013-05-28 15:43:00,
2013-05-28 07:52:00,45.0,42.0,29.76,South,191,1.0,3.0,90,0.00,,,0.00,,2013-05-28 15:52:00,
2013-05-28 08:03:00,46.0,42.0,29.76,South,190,1.0,6.0,86,0.00,,,0.00,,2013-05-28 16:03:00,
2013-05-28 08:12:00,46.0,42.0,29.76,South,190,1.0,6.0,86,0.00,,,0.00,,2013-05-28 16:12:00,
2013-05-28 08:22:00,46.0,42.0,29.76,South,190,0.0,3.0,85,0.00,,,0.00,,2013-05-28 16:22:00,
2013-05-28 08:33:00,47.0,42.0,29.76,WSW,239,1.0,5.0,84,0.00,,,0.00,,2013-05-28 16:33:00,
2013-05-28 08:42:00,47.0,42.0,29.76,WSW,239,1.0,5.0,84,0.00,,,0.00,,2013-05-28 16:42:00,
2013-05-28 08:52:00,47.0,42.0,29.76,SSW,199,1.0,5.0,83,0.00,,,0.00,,2013-05-28 16:52:00,
2013-05-28 09:02:00,48.0,42.0,29.76,WSW,237,1.0,3.0,81,0.00,,,0.00,,2013-05-28 17:02:00,
2013-05-28 09:11:00,48.0,42.0,29.76,WSW,237,1.0,3.0,81,0.00,,,0.00,,2013-05-28 17:11:00,
2013-05-28 09:22:00,48.0,42.0,29.76,WSW,237,1.0,3.0,81,0.00,,,0.00,,2013-05-28 17:22:00,
2013-05-28 09:32:00,48.0,42.0,29.75,WNW,286,1.0,3.0,81,0.00,,,0.00,,2013-05-28 17:32:00,
2013-05-28 09:41:00,49.0,43.0,29.75,West,263,1.0,3.0,80,0.00,,,0.00,,2013-05-28 17:41:00,
2013-05-28 09:52:00,49.0,43.0,29.75,West,263,1.0,3.0,80,0.00,,,0.00,,2013-05-28 17:52:00,
2013-05-28 10:01:00,48.0,42.0,29.75,NW,320,1.0,3.0,81,0.00,,,0.00,,2013-05-28 18:01:00,
2013-05-28 10:11:00,48.0,42.0,29.75,NW,320,1.0,3.0,81,0.00,,,0.00,,2013-05-28 18:11:00,
2013-05-28 10:21:00,49.0,43.0,29.75,WNW,288,2.0,3.0,80,0.00,,,0.00,,2013-05-28 18:21:00,
2013-05-28 10:32:00,49.0,43.0,29.74,WSW,244,2.0,5.0,80,0.00,,,0.00,,2013-05-28 18:32:00,
2013-05-28 10:42:00,50.0,44.0,29.74,West,267,2.0,5.0,79,0.00,,,0.00,,2013-05-28 18:42:00,
2013-05-28 10:52:00,50.0,44.0,29.74,West,267,2.0,5.0,79,0.00,,,0.00,,2013-05-28 18:52:00,
2013-05-28 11:01:00,51.0,44.0,29.74,SW,217,1.0,3.0,78,0.00,,,0.00,,2013-05-28 19:01:00,
2013-05-28 11:11:00,51.0,44.0,29.74,SW,217,1.0,3.0,78,0.00,,,0.00,,2013-05-28 19:11:00,
2013-05-28 11:21:00,51.0,44.0,29.74,NW,304,1.0,5.0,76,0.00,,,0.00,,2013-05-28 19:21:00,
2013-05-28 11:31:00,51.0,44.0,29.73,NW,314,1.0,5.0,77,0.00,,,0.00,,2013-05-28 19:31:00,
2013-05-28 11:41:00,51.0,44.0,29.73,NW,314,1.0,5.0,77,0.00,,,0.00,,2013-05-28 19:41:00,
2013-05-28 11:52:00,51.0,44.0,29.73,WNW,298,2.0,5.0,77,0.00,,,0.00,,2013-05-28 19:52:00,
2013-05-28 12:01:00,51.0,44.0,29.73,NNW,347,1.0,6.0,77,0.00,,,0.00,,2013-05-28 20:01:00,
2013-05-28 12:11:00,51.0,44.0,29.73,NNW,347,1.0,6.0,77,0.00,,,0.00,,2013-05-28 20:11:00,
2013-05-28 12:22:00,51.0,44.0,29.72,NW,321,3.0,5.0,77,0.00,,,0.00,,2013-05-28 20:22:00,
2013-05-28 12:32:00,52.0,45.0,29.72,NNW,328,1.0,3.0,77,0.00,,,0.00,,2013-05-28 20:32:00,
2013-05-28 12:42:00,52.0,45.0,29.72,NNW,328,1.0,3.0,77,0.00,,,0.00,,2013-05-28 20:42:00,
2013-05-28 12:52:00,53.0,45.0,29.72,WNW,301,2.0,5.0,75,0.00,,,0.00,,2013-05-28 20:52:00,
2013-05-28 13:01:00,54.0,45.0,29.71,WNW,298,2.0,5.0,72,0.00,,,0.00,,2013-05-28 21:01:00,
2013-05-28 13:11:00,55.0,45.0,29.71,NW,309,1.0,5.0,70,0.00,,,0.00,,2013-05-28 21:11:00,
2013-05-28 13:21:00,55.0,45.0,29.71,NW,309,1.0,5.0,70,0.00,,,0.00,,2013-05-28 21:21:00,
2013-05-28 13:33:00,57.0,46.0,29.71,West,266,2.0,6.0,66,0.00,,,0.00,,2013-05-28 21:33:00,
2013-05-28 13:43:00,58.0,47.0,29.70,NNW,346,2.0,6.0,66,0.00,,,0.00,,2013-05-28 21:43:00,
2013-05-28 13:53:00,58.0,47.0,29.70,NNW,346,2.0,6.0,66,0.00,,,0.00,,2013-05-28 21:53:00,
2013-05-28 14:02:00,58.0,45.0,29.70,NW,309,3.0,6.0,63,0.00,,,0.00,,2013-05-28 22:02:00,
2013-05-28 14:12:00,58.0,45.0,29.69,WNW,298,2.0,6.0,63,0.00,,,0.00,,2013-05-28 22:12:00,
2013-05-28 14:22:00,58.0,45.0,29.69,WNW,298,2.0,6.0,63,0.00,,,0.00,,2013-05-28 22:22:00,
2013-05-28 14:32:00,59.0,46.0,29.69,NW,326,2.0,7.0,62,0.00,,,0.00,,2013-05-28 22:32:00,
2013-05-28 14:42:00,60.0,46.0,29.69,WNW,294,2.0,7.0,60,0.00,,,0.00,,2013-05-28 22:42:00,
2013-05-28 14:52:00,60.0,46.0,29.69,WNW,294,2.0,7.0,60,0.00,,,0.00,,2013-05-28 22:52:00,
2013-05-28 15:02:00,62.0,46.0,29.69,WNW,289,2.0,7.0,56,0.00,,,0.00,,2013-05-28 23:02:00,
2013-05-28 15:11:00,63.0,46.0,29.69,WNW,302,3.0,7.0,54,0.00,,,0.00,,2013-05-28 23:11:00,
2013-05-28 15:21:00,63.0,46.0,29.69,WNW,302,3.0,7.0,54,0.00,,,0.00,,2013-05-28 23:21:00,
2013-05-28 15:32:00,63.0,46.0,29.69,NW,323,3.0,8.0,53,0.00,,,0.00,,2013-05-28 23:32:00,
2013-05-28 15:41:00,63.0,46.0,29.69,NW,323,3.0,8.0,53,0.00,,,0.00,,2013-05-28 23:41:00,
2013-05-28 15:52:00,64.0,45.0,29.69,NNW,341,2.0,9.0,51,0.00,,,0.00,,2013-05-28 23:52:00,
2013-05-28 16:02:00,64.0,44.0,29.68,North,5,3.0,8.0,49,0.00,,,0.00,,2013-05-29 00:02:00,
2013-05-28 16:11:00,64.0,44.0,29.68,North,5,3.0,8.0,49,0.00,,,0.00,,2013-05-29 00:11:00,
2013-05-28 16:21:00,64.0,44.0,29.68,NW,309,5.0,8.0,49,0.00,,,0.00,,2013-05-29 00:21:00,
2013-05-28 16:32:00,65.0,46.0,29.67,North,349,3.0,9.0,51,0.00,,,0.00,,2013-05-29 00:32:00,
2013-05-28 16:41:00,65.0,46.0,29.67,North,349,3.0,9.0,51,0.00,,,0.00,,2013-05-29 00:41:00,
2013-05-28 16:51:00,65.0,46.0,29.67,NNW,336,1.0,9.0,51,0.00,,,0.00,,2013-05-29 00:51:00,
2013-05-28 17:01:00,64.0,45.0,29.67,NNW,341,6.0,9.0,50,0.00,,,0.00,,2013-05-29 01:01:00,
2013-05-28 17:11:00,64.0,45.0,29.67,NNW,341,6.0,9.0,50,0.00,,,0.00,,2013-05-29 01:11:00,
2013-05-28 17:21:00,65.0,46.0,29.67,NW,316,3.0,9.0,50,0.00,,,0.00,,2013-05-29 01:21:00,
2013-05-28 17:32:00,67.0,46.0,29.66,NNW,343,3.0,9.0,47,0.00,,,0.00,,2013-05-29 01:32:00,
2013-05-28 17:41:00,67.0,46.0,29.66,NNW,343,3.0,9.0,47,0.00,,,0.00,,2013-05-29 01:41:00,
2013-05-28 17:52:00,68.0,46.0,29.66,NNW,337,5.0,10.0,45,0.00,,,0.00,,2013-05-29 01:52:00,
2013-05-28 18:02:00,69.0,46.0,29.66,NW,311,3.0,7.0,43,0.00,,,0.00,,2013-05-29 02:02:00,
2013-05-28 18:11:00,69.0,46.0,29.66,NW,311,3.0,7.0,43,0.00,,,0.00,,2013-05-29 02:11:00,
2013-05-28 18:31:00,67.0,46.0,29.65,NW,309,0.0,6.0,46,0.00,,,0.00,,2013-05-29 02:31:00,
2013-05-28 18:41:00,67.0,46.0,29.65,NW,319,1.0,6.0,47,0.00,,,0.00,,2013-05-29 02:41:00,
2013-05-28 18:51:00,67.0,46.0,29.65,NW,319,1.0,6.0,47,0.00,,,0.00,,2013-05-29 02:51:00,
2013-05-28 19:01:00,67.0,47.0,29.65,NNW,328,2.0,7.0,48,0.00,,,0.00,,2013-05-29 03:01:00,
2013-05-28 19:21:00,67.0,46.0,29.65,NW,326,2.0,7.0,46,0.00,,,0.00,,2013-05-29 03:21:00,
2013-05-28 19:33:00,66.0,46.0,29.65,NW,317,2.0,6.0,48,0.00,,,0.00,,2013-05-29 03:33:00,
2013-05-28 20:02:00,65.0,46.0,29.65,NW,306,1.0,6.0,50,0.00,,,0.00,,2013-05-29 04:02:00,
2013-05-28 20:12:00,65.0,45.0,29.65,NW,304,3.0,7.0,48,0.00,,,0.00,,2013-05-29 04:12:00,
2013-05-28 20:23:00,65.0,45.0,29.65,NW,304,3.0,7.0,48,0.00,,,0.00,,2013-05-29 04:23:00,
2013-05-28 20:33:00,66.0,44.0,29.65,NNW,346,2.0,8.0,45,0.00,,,0.00,,2013-05-29 04:33:00,
2013-05-28 20:42:00,66.0,44.0,29.65,NNW,346,2.0,8.0,45,0.00,,,0.00,,2013-05-29 04:42:00,
2013-05-28 20:52:00,66.0,45.0,29.65,NW,326,1.0,6.0,46,0.00,,,0.00,,2013-05-29 04:52:00,
2013-05-28 21:02:00,65.0,43.0,29.64,North,350,3.0,6.0,44,0.00,,,0.00,,2013-05-29 05:02:00,
2013-05-28 21:12:00,65.0,43.0,29.64,North,350,3.0,6.0,44,0.00,,,0.00,,2013-05-29 05:12:00,
2013-05-28 21:22:00,65.0,43.0,29.64,North,2,2.0,5.0,45,0.00,,,0.00,,2013-05-29 05:22:00,
2013-05-28 21:32:00,65.0,43.0,29.64,NNW,343,1.0,3.0,44,0.00,,,0.00,,2013-05-29 05:32:00,
2013-05-28 21:42:00,65.0,43.0,29.64,NNW,343,1.0,3.0,44,0.00,,,0.00,,2013-05-29 05:42:00,
2013-05-28 21:52:00,65.0,43.0,29.65,NNW,328,2.0,5.0,45,0.00,,,0.00,,2013-05-29 05:52:00,
2013-05-28 22:01:00,63.0,43.0,29.64,NW,325,1.0,5.0,48,0.00,,,0.00,,2013-05-29 06:01:00,
2013-05-28 22:11:00,63.0,43.0,29.64,NW,325,1.0,5.0,48,0.00,,,0.00,,2013-05-29 06:11:00,
2013-05-28 22:21:00,63.0,44.0,29.64,NW,325,1.0,3.0,49,0.00,,,0.00,,2013-05-29 06:21:00,
2013-05-28 22:31:00,62.0,44.0,29.64,NNW,328,0.0,2.0,51,0.00,,,0.00,,2013-05-29 06:31:00,
2013-05-28 22:41:00,62.0,44.0,29.64,NNW,328,0.0,2.0,51,0.00,,,0.00,,2013-05-29 06:41:00,
2013-05-28 22:51:00,61.0,44.0,29.64,NNW,328,0.0,1.0,54,0.00,,,0.00,,2013-05-29 06:51:00,
2013-05-28 23:01:00,58.0,42.0,29.65,NNW,328,0.0,0.0,55,0.00,,,0.00,,2013-05-29 07:01:00,
2013-05-28 23:11:00,58.0,42.0,29.65,NNW,328,0.0,0.0,55,0.00,,,0.00,,2013-05-29 07:11:00,
2013-05-28 23:21:00,57.0,43.0,29.65,NNW,328,0.0,0.0,59,0.00,,,0.00,,2013-05-29 07:21:00,
2013-05-28 23:34:00,55.0,43.0,29.64,NNW,328,0.0,0.0,64,0.00,,,0.00,,2013-05-29 07:34:00,
2013-05-28 23:42:00,55.0,43.0,29.64,NNW,328,0.0,0.0,64,0.00,,,0.00,,2013-05-29 07:42:00,
2013-05-28 23:52:00,54.0,43.0,29.64,NNW,328,0.0,0.0,65,0.00,,,0.00,,2013-05-29 07:52:00,